Weather History for KBKB - November, 2013

Change the Weather History Date:

Friday, November 22, 2013

  Actual Average (KPOE) Record (KPOE)
Temperature  
Mean Temperature 70 °F -  
Max Temperature 78 °F 64 °F 81 °F (2010)
Min Temperature 62 °F 45 °F 30 °F (2000)
Cooling Degree Days 5    
Growing Degree Days 20 (Base 50)    
Moisture  
Dew Point 64 °F    
Average Humidity 80    
Maximum Humidity 93    
Minimum Humidity 64    
Precipitation  
Precipitation 0.13 in - - ()
Sea Level Pressure  
Sea Level Pressure 30.21 in    
Wind  
Wind Speed 3 mph (ENE)    
Max Wind Speed 7 mph    
Max Gust Speed -    
Visibility 6 miles    
Events Rain    
Averages and records for this station are not official NWS values.
T = Trace of Precipitation, MM = Missing Value Source: NWS Daily Summary

Daily Weather History Graph

Daily Weather History Graph

Search for Another Location

Airport or City:

Trip Planner

Search our weather history database for the weather conditions in past years. The results will help you decide how hot, cold, wet, or windy it might be!

Date:

Astronomy

Nov. 22, 2013 Rise Set
Actual Time 6:44 AM CST 5:10 PM CST
Civil Twilight 6:18 AM CST 5:36 PM CST
Nautical Twilight 5:49 AM CST 6:06 PM CST
Astronomical Twilight 5:20 AM CST 6:35 PM CST
Moon 9:38 PM CST (11/22) 10:32 AM CST (11/22)
Length of Visible Light 11h 17m
Length of Day
10h 25m
Waning Gibbous, 78% of the Moon is Illuminated
Nov 22
Waning Gibbous
Nov 25
Last Quarter
Dec 2
New
Dec 9
First Quarter
Dec 17
Full

Hourly Weather History & Observations

Time (CST) Temp. Dew Point Humidity Pressure Visibility Wind Dir Wind Speed Gust Speed Precip Events Conditions
12:21 AM 69.8 °F 66.2 °F 88% 30.10 in 3.0 mi Variable 3.5 mph - N/A   Overcast
12:54 AM 70.0 °F 66.9 °F 90% 30.18 in 2.5 mi Variable 4.6 mph - N/A   Overcast
1:21 AM 69.8 °F 66.2 °F 88% 30.10 in 1.5 mi Variable 4.6 mph - N/A   Overcast
1:54 AM 69.1 °F 66.9 °F 93% 30.19 in 1.5 mi SE 4.6 mph - N/A   Overcast
2:54 AM 69.1 °F 66.9 °F 93% 30.18 in 1.5 mi Calm Calm - N/A   Overcast
3:54 AM 68.0 °F 66.0 °F 93% 30.18 in 1.2 mi Calm Calm - N/A   Overcast
4:54 AM 70.0 °F 66.0 °F 87% 30.21 in 1.5 mi Calm Calm - N/A   Overcast
5:54 AM 71.1 °F 66.0 °F 84% 30.22 in 1.0 mi Variable 3.5 mph - N/A   Haze
6:54 AM 71.1 °F 66.0 °F 84% 30.23 in 1.0 mi Calm Calm - N/A   Haze
7:54 AM 72.0 °F 66.0 °F 81% 30.26 in 0.8 mi Calm Calm - N/A   Haze
8:54 AM 72.0 °F 66.0 °F 81% 30.29 in 0.5 mi NE 3.5 mph - N/A   Haze
9:11 AM 71.6 °F 64.4 °F 78% 30.22 in 1.8 mi Variable 6.9 mph - 0.00 in Rain Light Rain
9:19 AM 71.6 °F 64.4 °F 78% 30.22 in 2.0 mi Variable 4.6 mph - 0.02 in Rain Light Rain
9:25 AM 69.8 °F 64.4 °F 83% 30.22 in 1.5 mi Variable 3.5 mph - 0.07 in Rain Rain
9:31 AM 69.8 °F 64.4 °F 83% 30.22 in 3.0 mi Variable 4.6 mph - 0.07 in Rain Light Rain
9:42 AM 69.8 °F 64.4 °F 83% 30.22 in 4.0 mi Variable 4.6 mph - 0.08 in Rain Light Rain
9:54 AM 71.1 °F 64.0 °F 78% 30.30 in 6.0 mi Calm Calm - 0.09 in Rain Light Rain
10:49 AM 71.6 °F 64.4 °F 78% 30.22 in 9.0 mi Variable 3.5 mph - 0.03 in Rain Light Rain
10:54 AM 73.0 °F 64.0 °F 73% 30.30 in 10.0 mi Calm Calm - 0.03 in   Overcast
11:54 AM 73.0 °F 64.9 °F 76% 30.28 in 10.0 mi Calm Calm - 0.00 in   Overcast
12:54 PM 75.9 °F 64.9 °F 69% 30.26 in 9.0 mi Calm Calm - 0.01 in Rain Light Rain
1:28 PM 73.4 °F 66.2 °F 78% 30.16 in 10.0 mi Calm Calm - 0.00 in   Overcast
1:54 PM 78.1 °F 64.9 °F 64% 30.23 in 10.0 mi Calm Calm - 0.00 in   Overcast
2:05 PM 75.2 °F 64.4 °F 69% 30.15 in 10.0 mi Variable 4.6 mph - N/A   Overcast
2:37 PM 77.0 °F 64.4 °F 65% 30.14 in 10.0 mi Variable 3.5 mph - N/A   Mostly Cloudy
2:54 PM 75.0 °F 64.9 °F 71% 30.22 in 10.0 mi Variable 3.5 mph - N/A   Scattered Clouds
3:36 PM 75.2 °F 64.4 °F 69% 30.14 in 10.0 mi Calm Calm - N/A   Mostly Cloudy
3:54 PM 73.0 °F 64.9 °F 76% 30.22 in 10.0 mi ENE 3.5 mph - N/A   Mostly Cloudy
4:54 PM 72.0 °F 64.0 °F 76% 30.23 in 10.0 mi Calm Calm - N/A   Overcast
5:02 PM 71.6 °F 64.4 °F 78% 30.16 in 10.0 mi Calm Calm - N/A   Overcast
5:19 PM 71.6 °F 64.4 °F 78% 30.16 in 10.0 mi Calm Calm - N/A   Overcast
5:26 PM 71.6 °F 64.4 °F 78% 30.16 in 10.0 mi Calm Calm - N/A   Overcast
5:54 PM 71.1 °F 64.0 °F 78% 30.25 in 10.0 mi Calm Calm - N/A   Overcast
6:15 PM 71.6 °F 64.4 °F 78% 30.17 in 10.0 mi Calm Calm - N/A   Overcast
6:33 PM 71.6 °F 64.4 °F 78% 30.17 in 10.0 mi Calm Calm - N/A   Overcast
6:54 PM 71.1 °F 64.0 °F 78% 30.26 in 10.0 mi Calm Calm - N/A   Overcast
7:04 PM 71.6 °F 64.4 °F 78% 30.18 in 10.0 mi Calm Calm - N/A   Overcast
7:21 PM 71.6 °F 64.4 °F 78% 30.19 in 10.0 mi Calm Calm - N/A   Overcast
7:54 PM 71.1 °F 64.0 °F 78% 30.27 in 10.0 mi Variable 3.5 mph - 0.00 in Rain Light Rain
8:51 PM 69.8 °F 60.8 °F 73% 30.20 in 1.8 mi Variable 4.6 mph - 0.00 in Rain Light Rain
8:54 PM 66.9 °F 61.0 °F 81% 30.28 in 1.5 mi Variable 3.5 mph - 0.00 in Rain Light Rain
9:30 PM 66.2 °F 60.8 °F 83% 30.21 in 3.0 mi Variable 3.5 mph - N/A   Haze
9:54 PM 64.0 °F 59.0 °F 84% 30.30 in 10.0 mi Calm Calm - N/A   Overcast
10:54 PM 64.0 °F 59.0 °F 84% 30.29 in 3.0 mi Variable 4.6 mph - 0.00 in   Haze
11:17 PM 62.6 °F 57.2 °F 82% 30.21 in 2.5 mi Variable 5.8 mph - N/A   Haze
11:34 PM 62.6 °F 57.2 °F 82% 30.21 in 4.0 mi Variable 5.8 mph - N/A   Haze
11:54 PM 63.0 °F 57.0 °F 81% 30.29 in 3.0 mi Variable 3.5 mph - N/A   Haze